星链-6116 (STARLINK-6116 )

导读 | 星芒AI

STARLINK-6116 是 SpaceX Starlink 卫星互联网项目中的一颗低轨卫星,属于第61批发射的星链卫星之一。该卫星旨在为全球用户提供高速、低延迟的宽带互联网服务,尤其服务于传统网络难以覆盖的偏远地区。它运行在约550公里高的近地轨道,采用先进通信技术,支持全球范围内的数据传输。Starlink 项目计划部署数千颗卫星,构建一个覆盖全球的卫星互联网网络。STARLINK-6116 的成功部署有助于提升 Starlink 网络的稳定性和覆盖能力。

基本信息
目录编号:
56911
目录名称:
STARLINK-6116
国际标识:
2023-083AM
轨道中心:
EARTH
卫星名称:
星链-6116
卫星全名:
星链-6116 (STARLINK-6116 )
卫星状态:
在轨 (已飞行923 天)
发射日期:
2023-06-12 UTC
国别 :
美国 (US)
星等 :
--
轨道信息
数据来源 国际轨道数据 AOE轨道数据
星历时间 2025-12-21T16:38:39+0800
9小时前
查看轨道信息
2025-12-21T12:00:00+0800
13小时前
查看轨道信息
半长轴 6937.228km 6937.215km
偏心率 0.0001229 0.0000604
轨道倾角 43.003° 43.000°
近地点辐角 268.521° 288.073°
升交点赤经 134.738° 135.791°
平近点角 91.549° 104.085°
近地点 558.238km 558.658km
远地点 559.944km 559.498km
周期 95.838分钟 95.838分钟
每日圈数 15.025323 15.025367
详细信息
固有亮度:
5
最大亮度:
2.4
卫星平台:
Starlink v1.5
覆盖范围:
全球
运营商:
太空探索技术公司
运营商所在国:
美国
制造商(研发单位):
太空探索技术公司
制造商所在国:
美国
使用方式:
暂无
卫星简介
星链(Starlink)计划是由太空探索技术公司(SpaceX)提出的一个巨型低轨卫星互联网星座项目,计划在2019年至2024年间在太空搭建由约1.2万颗卫星组成的“星链”网络,其中1584颗将部署在地球上空550千米处的近地轨道,并从2020年开始工作。该卫星仍在工作。
2D轨道图
3D轨道图
轨道高度分析图
轨道倾角分析图
轨道综合分析图
查看轨道综合分析图